x

8419317 - Wells, Me (welm1) Weather Station

5:30 - Fri 6th Mar 2015 All times are EST. -5 hours from GMT.

  • Wind
    5mph, 6mph gusts
  • Ar Temp 4°f
  • Sea Pressure 1030.1mb
  • 8419317 - Wells, Me
  • 8419317 - Wells, Me

More Historic Weather Station data

Upgrade to MSW Pro to gain access to the past 30 days of data for over 8000 Wavebouys and Weather Stations around the globe.

Join Pro

Comparision Forecast

View Surf forecast
   
Sex 03/06 5:30 5 6 mph 1030.1mb 4f
5:24 2 3 mph 1030.2mb 4f
5:18 1 3 mph 1030.2mb 5f
5:12 3 5 mph 1030.2mb 5f
5:06 3 6 mph 1030.1mb 5f
5:00 3 5 mph 1030mb 5f
4:54 5 6 mph 1029.8mb 5f
4:48  -  mph 1029.7mb -
4:42  -  mph 1029.6mb -
4:36  -  mph 1029.4mb -
4:30 6 8 mph 1029.3mb 6f
4:24 6 8 mph 1029.3mb 6f
4:18 6 8 mph 1029.4mb 6f
4:12 5 7 mph 1029.3mb 6f
4:06 3 6 mph 1029.2mb 6f
4:00 5 7 mph 1029.2mb 6f
3:54 5 7 mph 1029mb 6f
3:48  -  mph 1029mb 6f
3:42  -  mph 1029mb 7f
3:36  -  mph 1028.8mb 7f
3:30 5 6 mph 1028.7mb 8f
3:24 5 6 mph 1028.7mb 8f
3:18 5 7 mph 1028.7mb 8f
3:12 5 7 mph 1028.6mb 8f
3:06 6 7 mph 1028.5mb 8f
3:00 6 8 mph 1028.4mb 8f
2:54 7 9 mph 1028.3mb 9f
2:48 7 10 mph 1028.3mb 9f
2:42 9 11 mph 1028.1mb 9f
2:36 9 13 mph 1027.9mb 10f
2:30 8 11 mph 1027.9mb 10f
2:24 7 10 mph 1027.9mb 9f
2:18 8 11 mph 1028mb 10f
2:12 9 11 mph 1027.9mb 10f
2:06 8 10 mph 1027.9mb 10f
2:00  -  mph 1027.8mb -
1:54  -  mph 1027.7mb -
1:48 10 13 mph 1027.7mb -
1:42 9 10 mph 1027.6mb -
1:36 8 11 mph 1027.5mb -
1:30 9 10 mph 1027.4mb 12f
1:24 9 13 mph 1027.4mb 12f
1:18 10 13 mph 1027.3mb 12f
1:12 10 13 mph 1027.2mb 12f
1:06 11 14 mph 1027mb 13f
1:00 8 10 mph 1026.9mb 13f
12:54 8 10 mph 1026.9mb 13f
12:48 7 9 mph 1026.8mb 14f
12:42 8 9 mph 1026.7mb 13f
12:36 8 10 mph 1026.6mb 14f
12:30 7 9 mph 1026.4mb 14f
12:24 8 10 mph 1026.3mb 14f
12:18 7 11 mph 1026.2mb 14f
12:12 7 9 mph 1026.1mb 14f
12:06 7 8 mph 1026.1mb 15f
12:00 8 10 mph 1026mb 15f
Qui 03/05 11:54 10 11 mph 1026mb 15f
11:48 9 10 mph 1025.9mb 16f
11:42 8 11 mph 1026mb 15f
11:36 9 11 mph 1026.1mb 16f
11:30 7 11 mph 1025.9mb 16f
11:24 7 8 mph 1025.7mb 16f
11:18 6 9 mph 1025.8mb 17f
11:12 8 10 mph 1025.9mb 17f
11:06 7 8 mph 1025.7mb 17f
11:00 6 7 mph 1025.7mb 17f
10:54 6 8 mph 1025.7mb 17f
10:48 6 14 mph 1025.6mb 17f
10:42 7 9 mph 1025.5mb 17f
10:36 7 8 mph 1025.3mb 17f
10:30 6 9 mph 1025.3mb 18f
10:24 7 9 mph 1024.6mb 18f
10:18 8 10 mph 1024.7mb 18f
10:12 9 10 mph 1024.6mb 18f
10:06 8 9 mph 1024.5mb 18f
10:00 8 9 mph 1024.4mb 18f
9:54 7 9 mph 1024.3mb 19f
9:48 7 10 mph 1024.4mb 19f
9:42 7 9 mph 1024mb 19f
9:36 6 7 mph 1023.7mb 19f
9:30 7 10 mph 1023.7mb 19f
9:24 7 10 mph 1023.6mb 19f
9:18 6 9 mph 1023.4mb 19f
9:12 6 8 mph 1023.4mb 19f
9:06 7 9 mph 1023.2mb 19f
9:00 10 11 mph 1022.9mb 19f
8:54 9 11 mph 1022.9mb 19f
8:48 9 11 mph 1023mb 19f
8:42 8 10 mph 1023.1mb 19f
8:36 6 9 mph 1023.1mb 19f
8:30 7 14 mph 1023mb 19f
8:24 8 13 mph 1022.8mb 19f
8:18 8 14 mph 1022.7mb 20f
8:12 8 13 mph 1022.7mb 20f
8:06 9 13 mph 1022.7mb 20f
8:00 11 15 mph 1022.7mb 20f
7:54 10 15 mph 1022.5mb 20f
7:48 8 13 mph 1022.4mb 20f
7:42 8 11 mph 1022.5mb 20f
7:36 7 8 mph 1022.1mb 20f
7:30 7 13 mph 1021.8mb 20f
7:24 9 13 mph 1021.5mb 20f
7:18 6 10 mph 1021.8mb 20f
7:12 9 13 mph 1021.8mb 20f
7:06 10 15 mph 1021.6mb 21f
7:00 10 14 mph 1021.5mb 21f
6:54 11 14 mph 1021.2mb 21f
6:48 9 13 mph 1020.8mb 21f
6:42 10 16 mph 1020.8mb 21f
6:36 8 11 mph 1020.6mb 21f
6:30 9 11 mph 1020.6mb 21f
6:24 7 11 mph 1020.8mb 21f
6:18 9 13 mph 1020.8mb 21f
6:12 9 13 mph 1020.4mb 21f
6:06 9 11 mph 1020.4mb 21f
6:00 9 11 mph 1020.1mb 21f
5:54 8 13 mph 1020mb 22f
5:48 10 13 mph 1019.8mb 22f
5:42 11 16 mph 1019.8mb 22f
5:36 11 15 mph 1019.9mb 22f
5:30 9 14 mph 1019.5mb 22f
5:24 10 15 mph 1019.6mb 22f
5:18 8 15 mph 1019.7mb 22f
5:12 9 16 mph 1019.6mb 22f
5:06 10 13 mph 1019.6mb 22f
5:00 8 17 mph 1019.3mb 22f
4:54 8 11 mph 1018.8mb 22f
4:48 9 13 mph 1019.2mb 22f
4:42 9 15 mph 1019.3mb 22f
4:36 10 15 mph 1019mb 22f
4:30 9 16 mph 1018.8mb 23f
4:24 9 15 mph 1018.8mb 23f
4:18 10 15 mph 1018.8mb 23f
4:12 13 16 mph 1018.6mb 23f
4:06 9 13 mph 1018.8mb 23f
4:00 9 17 mph 1018.5mb 23f
3:54 11 17 mph 1018.5mb 23f
3:48 10 15 mph 1018.6mb 23f
3:42 6 15 mph 1018.7mb 23f
3:36 9 17 mph 1018.6mb 23f
3:30 13 16 mph 1018.8mb 23f
3:24 7 16 mph 1019mb 23f
3:18 10 21 mph 1018.8mb 23f
3:12 14 18 mph 1019.1mb 24f
3:06 8 16 mph 1019mb 24f
3:00 10 15 mph 1018.7mb 24f
2:54 8 14 mph 1018.8mb 24f
2:48 7 14 mph 1018.5mb 24f
2:42 10 15 mph 1018.3mb 24f
2:36 8 15 mph 1018.4mb 24f
2:30 7 13 mph 1018.2mb 24f
2:24 8 15 mph 1018.1mb 24f
2:18 11 15 mph 1018.2mb 24f
2:12 10 18 mph 1018mb 25f
2:06 10 15 mph 1017.8mb 24f
2:00 10 17 mph 1017.9mb 24f
1:54 10 14 mph 1018.2mb 25f
1:48 10 17 mph 1018mb 25f
1:42 8 14 mph 1017.7mb 25f
1:36 10 14 mph 1017.4mb 25f
1:30 14 16 mph 1017.6mb 25f
1:24 11 15 mph 1017.6mb 25f
1:18 13 17 mph 1017.6mb 25f
1:12 11 16 mph 1017.6mb 25f
1:06 13 16 mph 1017.8mb 25f
1:00 14 17 mph 1017.5mb 25f
12:54 13 16 mph 1017.7mb 26f
12:48 14 18 mph 1017.4mb 26f
12:42 13 17 mph 1017.4mb 26f
12:36 11 15 mph 1017.5mb 26f
12:30 9 14 mph 1017.5mb 26f
12:24 9 15 mph 1017.1mb 26f
12:18 10 15 mph 1016.7mb 25f
12:12 10 16 mph 1016.8mb 26f
12:06 11 15 mph 1016.8mb 25f
12:00 11 13 mph 1017.1mb 26f
11:54 14 16 mph 1017.4mb 26f
11:48 10 15 mph 1017.4mb 26f
11:42 10 18 mph 1017.6mb 27f
11:36 11 17 mph 1017.6mb 27f
11:30 10 15 mph 1017.6mb 28f
11:24 15 20 mph 1017.1mb 27f
11:18 11 17 mph 1017.4mb 28f
11:12 14 18 mph 1017.4mb 28f
11:06 11 20 mph 1017.3mb 28f
11:00 10 20 mph 1017.4mb 28f
10:54 14 18 mph 1017.4mb 28f
10:48 13 20 mph 1017.4mb 28f
10:42 13 18 mph 1017.1mb 28f
10:36 16 21 mph 1017mb 28f
10:30 15 22 mph 1017.1mb 28f
10:24 10 16 mph 1017.1mb 28f
10:18 9 18 mph 1016.7mb 28f
10:12 13 17 mph 1016.5mb 28f
10:06 8 17 mph 1016.4mb 28f
10:00 15 20 mph 1016.3mb 28f
9:54 15 21 mph 1016.2mb 28f
9:48 14 22 mph 1016.2mb 28f
9:42 17 23 mph 1016.3mb 28f
9:36 8 20 mph 1016.6mb 29f
9:30 11 20 mph 1016.3mb 29f
9:24 13 21 mph 1016.2mb 29f
9:18 9 14 mph 1016.1mb 29f
9:12 8 22 mph 1016mb 29f
9:06 14 21 mph 1015.7mb 29f
9:00 13 20 mph 1015.3mb 29f
8:54 11 17 mph 1015.4mb 29f
8:48 14 22 mph 1015.7mb 30f
8:42 8 20 mph 1015.7mb 30f
8:36 11 23 mph 1015.5mb 30f
8:30 11 21 mph 1015.6mb 30f
8:24 13 20 mph 1015.5mb 30f
8:18 14 22 mph 1015.5mb 30f
8:12 11 21 mph 1015mb 30f
8:06 10 21 mph 1014.8mb 31f
8:00 14 23 mph 1014.8mb 31f
7:54 8 22 mph 1014.7mb 31f
7:48 14 22 mph 1014.1mb 31f
7:42 11 18 mph 1014.1mb 31f
7:36 15 21 mph 1014.6mb 31f
7:30 9 18 mph 1014.6mb 31f
7:24 11 16 mph 1014.5mb 31f
7:18 8 21 mph 1014.3mb 31f
7:12 17 22 mph 1014.2mb 32f
7:06 11 18 mph 1014.1mb 32f
7:00 9 15 mph 1013.7mb 32f
6:54 11 18 mph 1014.2mb 32f
6:48 15 20 mph 1013.9mb 32f
6:42 13 23 mph 1013.8mb 32f
6:36 14 23 mph 1013.6mb 32f
6:30 17 24 mph 1013.5mb 32f
6:24 16 23 mph 1013.1mb 33f
6:18 16 21 mph 1013.1mb 33f
6:12 14 21 mph 1013.1mb 33f
6:06 13 18 mph 1013.1mb 33f
6:00 13 17 mph 1013.1mb 33f
5:54 11 17 mph 1013.1mb 33f
5:48 10 15 mph 1012.8mb 34f
5:42 11 22 mph 1012.8mb 34f
5:36 14 21 mph 1012.7mb 34f
5:30 11 18 mph 1012.5mb 34f
5:24 6 10 mph 1012.2mb 34f
5:18 8 13 mph 1011.8mb 34f
5:12 11 15 mph 1011.5mb 35f
5:06 13 18 mph 1011.2mb 35f
5:00 10 16 mph 1011.2mb 35f
4:54 10 15 mph 1011.3mb 35f
4:48  -  mph 1011mb -
4:42  -  mph 1011mb -
4:36  -  mph 1011mb -
4:30 7 11 mph 1011mb 35f
4:24 7 9 mph 1011mb 35f
4:18 8 13 mph 1010.8mb 35f
4:12 8 13 mph 1010.6mb 35f
4:06 8 13 mph 1010.5mb 35f
4:00 9 14 mph 1010.3mb 35f
3:54 10 16 mph 1010mb 35f
3:48 7 14 mph - 36f
3:42 9 18 mph - 36f
3:36 7 13 mph - 36f
3:30 8 13 mph 1009.2mb 36f
3:24 9 16 mph 1009.3mb 36f
3:18 9 17 mph 1009.2mb 36f
3:12 10 16 mph 1009.2mb 36f
3:06 10 14 mph 1009.4mb 37f
3:00 11 20 mph 1009.3mb 37f
2:54 9 16 mph 1009.4mb 37f
2:48 10 16 mph 1009.3mb 37f
2:42 9 15 mph 1009.3mb 37f
2:36 11 17 mph 1009.1mb 37f
2:30 11 17 mph 1009mb 37f
2:24 8 15 mph 1008.9mb 37f
2:18 8 14 mph 1009.2mb 37f
2:12 11 20 mph 1009.3mb 37f
2:06 7 11 mph 1009.3mb 37f
2:00 9 15 mph - 37f
1:54 8 13 mph - 37f
1:48 9 16 mph 1009.3mb 37f
1:42 8 14 mph 1009.4mb 37f
1:36 7 14 mph 1009.5mb 37f
1:30 7 14 mph 1009.5mb 37f
1:24 7 14 mph 1009.2mb 37f
1:18 8 15 mph 1009.3mb 38f
1:12 8 13 mph 1009.3mb 38f
1:06 8 15 mph 1009.2mb 38f
1:00 8 13 mph 1009.1mb 38f
12:54 8 17 mph 1008.7mb 38f
12:48 8 14 mph 1008.1mb 38f
12:42 8 16 mph 1008.1mb 38f
12:36 9 14 mph 1008.1mb 38f
12:30 8 15 mph 1008.2mb 38f
12:24 8 17 mph 1008.4mb 38f
12:18 10 15 mph 1008.3mb 38f
12:12 8 11 mph 1008.5mb 38f
12:06 9 14 mph 1008.4mb 38f
12:00 8 14 mph 1008.4mb 38f
Qua 03/04 11:54 10 18 mph 1008.5mb 38f
11:48 9 17 mph 1008.4mb 38f
11:42 9 14 mph 1008.4mb 38f
11:36 10 15 mph 1008.4mb 38f
11:30 6 14 mph 1008.3mb 38f
11:24 8 13 mph 1008.3mb 38f
11:18 7 14 mph 1008.1mb 38f
11:12 8 11 mph 1008.4mb 38f
11:06 7 14 mph 1008.3mb 38f
11:00 8 11 mph 1008.3mb 39f
10:54 5 15 mph 1008.5mb 39f
10:48 7 10 mph 1008.5mb 39f
10:42 6 10 mph 1008.6mb 39f
10:36 3 9 mph 1008.7mb 39f
10:30 7 11 mph 1008.5mb 39f
10:24 5 8 mph 1008.4mb 39f
10:18 6 10 mph 1008.4mb 39f
10:12 6 8 mph 1008mb 39f
10:06 3 6 mph 1007.7mb 39f
10:00 5 6 mph 1007.7mb 39f
9:54 3 6 mph 1007.8mb 39f
9:48 5 7 mph 1007.5mb 39f
9:42 3 7 mph 1007.2mb 39f
9:36 5 8 mph 1007.3mb 39f
9:30 3 7 mph 1007.4mb 39f
9:24 6 10 mph 1007.7mb 39f
9:18 7 9 mph 1007.7mb 40f
9:12 5 8 mph 1007.7mb 39f
9:06 3 7 mph 1007.7mb 39f
9:00 3 7 mph 1008mb 40f
8:54 6 8 mph 1008.2mb 40f
8:48 6 8 mph 1008.3mb 40f
8:42 6 10 mph 1008mb 40f
8:36 8 10 mph 1007.9mb 40f
8:30 7 11 mph 1008.2mb 40f
8:24 6 9 mph 1007.7mb 40f
8:18 6 9 mph 1007.7mb 40f
8:12 8 13 mph 1007.5mb 40f
8:06 5 9 mph 1007mb 40f
8:00 5 8 mph 1006.8mb 40f
7:54 6 11 mph 1006.7mb 40f
7:48 7 14 mph 1006.4mb 40f
7:42 5 9 mph 1006.5mb 40f
7:36 6 10 mph 1006.6mb 40f
7:30 8 14 mph 1006.7mb 41f
7:24 5 8 mph 1006.8mb 40f
7:18 7 9 mph 1007.2mb 41f
7:12 7 9 mph 1006.9mb 40f
7:06 6 9 mph 1007.1mb 41f
7:00 8 11 mph 1007.1mb 40f
6:54 7 10 mph 1007mb 40f
6:48 8 10 mph 1007mb 40f
6:42 8 9 mph 1006.7mb 41f
6:36 7 9 mph 1006.9mb 42f
6:30 7 10 mph 1006.6mb 42f
6:24 7 11 mph 1006.4mb 42f
6:18 5 8 mph 1006.3mb 42f
6:12 6 9 mph 1006.2mb 42f
6:06 6 8 mph 1006mb 42f
6:00 5 8 mph 1005.8mb 42f
5:54 6 10 mph 1005.9mb 43f
5:48 6 11 mph 1005.8mb 43f
5:42 7 11 mph 1005.6mb 43f
5:36 6 8 mph 1005.4mb 43f
5:30 5 7 mph 1005.6mb 43f
5:24 5 7 mph 1005.8mb 43f
5:18 5 9 mph 1005.9mb 44f
5:12 5 7 mph 1005.9mb 44f
5:06 6 8 mph 1005.7mb 44f
5:00 5 7 mph 1005.6mb 44f
4:54 5 7 mph 1005.3mb 44f
4:48 6 9 mph 1005.3mb 44f
4:42 6 9 mph 1005.3mb 44f
4:36 6 10 mph 1005.3mb 44f
4:30 6 9 mph 1005.3mb 45f
4:24 6 10 mph 1005.4mb 45f
4:18 6 11 mph 1005.3mb 45f
4:12 6 11 mph 1005.2mb 45f
4:06 8 13 mph 1005.1mb 45f
4:00 9 15 mph 1005.2mb 45f
3:54 9 15 mph 1005.4mb 45f
3:48 9 14 mph 1004.9mb 45f
3:42 9 16 mph 1004.6mb 45f
3:36 10 18 mph 1004.7mb 45f
3:30 6 18 mph 1004.6mb 45f
3:24 9 15 mph 1004.8mb 45f
3:18 13 22 mph 1004.6mb 45f
3:12 11 17 mph 1004.5mb 46f
3:06 11 14 mph 1004.6mb 46f
3:00 7 16 mph 1004.7mb 45f
2:54 11 18 mph 1004.9mb 45f
2:48 11 15 mph 1004.4mb 46f
2:42 9 16 mph 1004.3mb 46f
2:36 8 14 mph 1004.4mb 46f
2:30 8 11 mph 1004.2mb 46f
2:24 9 16 mph 1004.3mb 45f
2:18 7 15 mph 1004.3mb 45f
2:12 6 16 mph 1004.4mb 45f
2:06 6 11 mph 1004.6mb 46f
2:00 7 15 mph 1004.5mb 45f
1:54 8 17 mph 1004.4mb 45f
1:48 9 17 mph 1004.6mb 44f
1:42 11 20 mph 1004.9mb 45f
1:36 8 18 mph 1004.6mb 45f
1:30 9 24 mph 1004.3mb 44f
1:24 10 22 mph 1004.5mb 44f
1:18 9 21 mph 1004.5mb 44f
1:12 11 21 mph 1004.6mb 44f
1:06 16 22 mph 1005mb 44f
1:00 14 25 mph 1005.4mb 44f
12:54 13 20 mph 1005.3mb 44f
12:48 15 21 mph 1005.1mb 43f
12:42 11 20 mph 1005.4mb 43f
12:36 13 22 mph 1005.5mb 43f
12:30 13 18 mph 1005.5mb 43f
12:24 13 22 mph 1005.6mb 43f
12:18 8 13 mph 1005.8mb -
12:12 7 17 mph 1005.7mb -
12:06 6 18 mph 1005.8mb -
12:00 7 11 mph 1005.6mb 42f
11:54 5 13 mph 1005.4mb 41f
11:48 7 9 mph 1005.4mb 41f
11:42 5 10 mph 1005.5mb 41f
11:36 7 13 mph 1005.3mb 40f
11:30 6 10 mph 1005.4mb 40f
11:24 6 8 mph 1005.4mb 40f
11:18 6 8 mph 1005.6mb 40f
11:12 7 11 mph 1005.5mb 40f
11:06 6 9 mph 1005.4mb 39f
11:00 6 13 mph 1005.4mb 39f
10:54 7 9 mph 1005.4mb 39f
10:48 7 11 mph 1005.3mb 39f
10:42 6 9 mph 1005.3mb 38f
10:36 8 10 mph 1005.3mb 38f
10:30 6 9 mph 1005.3mb 37f
10:24 6 7 mph 1005.2mb 36f
10:18 5
mph
1004.9mb 35f
10:12 3 5 mph 1004.9mb 35f
10:06 3 5 mph 1004.9mb 35f
10:00 3 5 mph 1005.2mb 34f
9:54 5
mph
1004.8mb 34f
9:48 3 6 mph 1004.9mb 35f
9:42 5 6 mph 1004.7mb 35f
9:36 5 9 mph 1004.6mb 35f
9:30 5 7 mph 1004.7mb 34f
9:24 5 6 mph 1004.8mb 34f
9:18 5 6 mph 1004.9mb 33f
9:12 3 5 mph 1005.1mb 33f
9:06 3
mph
1005mb 33f
9:00 3 5 mph 1004.9mb 33f
8:54 3 5 mph 1004.7mb 33f
8:48 3
mph
1004.9mb 33f
8:42 2
mph
1005.1mb 33f
8:36 2 3 mph 1005mb 32f
8:30 2
mph
1004.7mb 32f
8:24 1 2 mph 1004.5mb 32f
8:18  -  1 mph 1004.8mb 32f
8:12 1
mph
1004.8mb 32f
8:06  -  2 mph 1004.7mb 32f
8:00 2 3 mph 1004.5mb 32f
7:54 2 6 mph 1004.7mb 32f
7:48 5 6 mph 1004.7mb 31f
7:42 2 3 mph 1004.3mb 31f
7:36 2 5 mph 1004.1mb 31f
7:30 3 8 mph 1004.1mb 31f
7:24 7 9 mph 1004.1mb 31f
7:18 7 9 mph 1003.7mb 31f
7:12 8 9 mph 1003.6mb 31f
7:06 6 7 mph 1003.9mb 31f
7:00 5 7 mph 1003.9mb 31f
6:54 5 6 mph 1003.7mb 30f
6:48 3 7 mph 1003.6mb 30f
6:42 6 9 mph 1003.4mb 31f
6:36 5 8 mph 1003.3mb 30f
6:30 3 7 mph 1003.1mb 30f
6:24 2 5 mph 1003mb 30f
6:18 2 5 mph 1003.1mb 30f
6:12 2 5 mph 1002.9mb 30f
6:06 2 3 mph 1002.6mb 29f
6:00 1 3 mph 1002.2mb 29f
5:54 2 3 mph 1002.4mb 29f
5:48 2 6 mph 1002.5mb 29f
5:42 2 3 mph 1002.4mb 30f
5:36 1 3 mph 1002.1mb 30f
5:30 3
mph
1002.1mb 30f
5:24 2 3 mph 1002.2mb 30f
5:18 2 3 mph 1002.1mb 30f
5:12 3 5 mph 1002.2mb 30f
5:06 2 3 mph 1002mb 30f
5:00 2 3 mph 1001.9mb 30f
4:54 2 5 mph 1001.8mb 30f
4:48 2 5 mph 1001.8mb 30f
4:42 3 5 mph 1001.8mb 30f
4:36 2 5 mph 1001.9mb 30f
4:30 2 5 mph 1001.9mb 31f
4:24 5 7 mph 1002.1mb 31f
4:18 5 7 mph 1001.9mb 31f
4:12 5
mph
1002.1mb 31f
4:06 3 5 mph 1002.2mb 31f
4:00 3 6 mph 1002.1mb 31f
3:54 5 9 mph 1002mb 32f
3:48 6 10 mph 1002mb 32f
3:42 6 9 mph 1001.9mb 31f
3:36 5 8 mph 1002mb 31f
3:30 5 6 mph 1002mb 31f
3:24 5 6 mph 1002.2mb 31f
3:18 5 7 mph 1002.2mb 31f
3:12 6 8 mph 1002.2mb 31f
3:06 6 9 mph 1002.3mb 31f
3:00 6 9 mph 1002.3mb 31f
2:54 8 10 mph 1002.3mb 31f
2:48 8 10 mph 1002.5mb 31f
2:42 8 10 mph 1002.7mb 31f
2:36 8 13 mph 1002.9mb 31f
2:30 9 11 mph 1003mb 31f
2:24 8 10 mph 1003.4mb 31f
2:18 9 10 mph 1003.5mb 31f
2:12 6 9 mph 1003.8mb 31f
2:06 9 11 mph 1004.1mb 31f
2:00 9 14 mph 1004.2mb 31f
1:54 11 17 mph 1004.5mb 31f
1:48 14 17 mph 1004.6mb 31f
1:42 11 14 mph 1005mb 31f
1:36 9 14 mph 1005.4mb 31f
1:30 10 15 mph 1005.5mb 31f
1:24 10 14 mph 1006mb 31f
1:18 14 16 mph 1006.2mb 31f
1:12 14 16 mph 1006.3mb 31f
1:06 14 15 mph 1006mb 31f
1:00 14 17 mph 1006.4mb 31f
12:54 11 16 mph 1006.5mb 31f
12:48 14 24 mph 1006.7mb 31f
12:42 15 22 mph 1006.7mb 31f
12:36 20 24 mph 1007.2mb 31f
12:30 15 23 mph 1007.3mb 31f
12:24 17 20 mph 1006.9mb 31f
12:18 16 21 mph 1007.3mb 31f
12:12 21 25 mph 1007.4mb 31f
12:06 24 29 mph 1007.2mb 31f
12:00 25 32 mph 1007.2mb 31f
Ter 03/03 11:54 23 28 mph 1007.4mb 31f
11:48 23 29 mph 1007.8mb 31f
11:42 24 32 mph 1008.3mb 31f
11:36 23 29 mph 1008.4mb 30f
11:30 21 29 mph 1009mb 30f
11:24 23 30 mph 1009.6mb 30f
11:18 28 33 mph 1009.8mb 30f
11:12 23 32 mph 1009.9mb 30f
11:06 30 34 mph 1010.4mb 30f
11:00 26 33 mph 1010.4mb 30f
10:54 25 30 mph 1010.2mb 30f
10:48 24 34 mph 1010.7mb 29f
10:42 18 22 mph 1010.9mb 29f
10:36 21 25 mph 1011.2mb 28f
10:30 18 22 mph 1011.7mb 28f
10:24 18 23 mph 1011.6mb 28f
10:18 14 17 mph 1011.7mb 27f
10:12 10 14 mph 1012.6mb 26f
10:06 11 13 mph 1013mb 25f
10:00 10 13 mph 1013.1mb 26f
9:54 11 14 mph 1013.1mb 25f
9:48 11 15 mph 1013.3mb 25f
9:42 13 15 mph 1013.5mb 25f
9:36 13 15 mph 1013.8mb 25f
9:30 13 14 mph 1014.3mb 25f
9:24 11 16 mph 1014.5mb 25f
9:18 13 15 mph 1014.8mb 25f
9:12 14 20 mph 1014.9mb 25f
9:06 17 20 mph 1015.2mb 25f
9:00 17 21 mph 1015.2mb 25f
8:54 16 23 mph 1015.4mb 25f
8:48 22 26 mph 1015.7mb 25f
8:42 20 26 mph 1016.1mb 26f
8:36 25 30 mph 1016.6mb 26f
8:30 25 31 mph 1016.8mb 26f
8:24 26 33 mph 1017mb 26f
8:18 30 34 mph 1016.7mb 27f
8:12 29 33 mph 1016.9mb 28f
8:06 21 31 mph 1016.8mb 28f
8:00 24 31 mph 1017mb 28f
7:54 17 23 mph 1016.8mb 28f
7:48 17 21 mph 1016.8mb 28f
7:42 16 21 mph 1017.1mb 27f
7:36 18 25 mph 1017.5mb 27f
7:30 20 24 mph 1017.5mb 27f
7:24 16 23 mph 1017.8mb 28f
7:18 17 24 mph 1017.9mb 28f
7:12 15 22 mph 1018.2mb 28f
7:06 18 23 mph 1018.4mb 28f
7:00 20 24 mph 1018.7mb 29f
6:54 17 22 mph 1018.9mb 29f
6:48 17 25 mph 1019.3mb 29f
6:42 21 26 mph 1019.4mb 29f
6:36 20 24 mph 1019.2mb 29f
6:30 11 14 mph 1019.3mb 29f
6:24 11 14 mph 1019.3mb 29f
6:18 9 11 mph 1019.3mb 29f
6:12 9 11 mph 1019.5mb 29f
6:06 7 9 mph 1019.5mb 28f
6:00 7 10 mph 1019.5mb 28f
5:54 8 10 mph 1019.7mb 28f
5:48 10 14 mph 1019.8mb 28f
5:42 14 16 mph 1019.8mb 28f
5:36 13 15 mph 1020.1mb 28f
5:30 14 16 mph 1020.2mb 28f
5:24 13 15 mph 1020.5mb 28f
5:18 11 15 mph 1020.5mb 28f
5:12 13 16 mph 1020.8mb 28f
5:06 14 20 mph 1020.9mb 28f
5:00 17 21 mph 1021.1mb 28f
4:54 15 21 mph 1021.1mb 28f
4:48 16 17 mph 1021.4mb 28f
4:42 15 21 mph 1021.4mb 28f
4:36 16 20 mph 1021.4mb 28f
4:30 15 17 mph 1021.4mb 28f
4:24 14 20 mph 1021.4mb 28f
4:18 16 20 mph 1021.6mb 28f
4:12 15 17 mph 1021.6mb 28f
4:06 14 17 mph 1021.8mb 28f
4:00 15 17 mph 1021.9mb 28f
3:54 14 15 mph 1022.1mb 28f
3:48 14 17 mph 1022.4mb 28f
3:42 15 18 mph 1022.4mb 27f
3:36 16 18 mph 1022.5mb 27f
3:30 15 21 mph 1022.7mb 27f
3:24 17 21 mph 1022.7mb 27f
3:18 16 20 mph 1022.9mb 27f
3:12 16 18 mph 1023.1mb 27f
3:06 14 21 mph 1023mb 27f
3:00 16 21 mph 1023.4mb 27f
2:54 15 20 mph 1023.5mb 27f
2:48 17 20 mph 1023.6mb 27f
2:42 16 21 mph 1023.6mb 27f
2:36 18 20 mph 1023.9mb 27f
2:30 17 20 mph 1023.9mb 27f
2:24 16 21 mph 1024mb 27f
2:18 15 20 mph 1024.1mb 27f
2:12 15 17 mph 1024.1mb 27f
2:06 13 16 mph 1024.3mb 27f
2:00 15 17 mph 1024.4mb 27f
1:54 10 14 mph 1024.3mb 27f
1:48 13 16 mph 1024.5mb 27f
1:42 10 14 mph 1024.6mb 28f
1:36 13 16 mph 1024.8mb 27f
1:30 13 15 mph 1024.9mb 27f
1:24 13 14 mph 1025mb 27f
1:18 13 14 mph 1025.4mb 27f
1:12 11 16 mph 1025.5mb 27f
1:06 13 16 mph 1025.8mb 26f
1:00 13 16 mph 1025.9mb 26f
12:54 13 16 mph 1026.1mb 26f
12:48 14 15 mph 1026.3mb 26f
12:42 11 14 mph 1026.3mb 26f
12:36 10 13 mph 1026.3mb 26f
12:30 9 11 mph 1026.3mb 26f
12:24 9 10 mph 1026.5mb 26f
12:18 10 13 mph 1026.6mb 26f
12:12 8 13 mph 1026.6mb 26f
12:06 10 13 mph 1026.8mb 26f
12:00 11 13 mph 1027mb 25f
11:54 11 14 mph 1027mb 25f
11:48 9 13 mph 1027mb 26f
11:42 10 11 mph 1027.1mb 26f
11:36 10 13 mph 1027.1mb 26f
11:30 8 10 mph 1027.2mb -
11:24 9 10 mph 1027.2mb -
11:18 8 9 mph - 26f
11:12 3 7 mph - 26f
11:06 6 8 mph - 26f
11:00  -  mph 1027.4mb 26f
10:54  -  mph 1027.6mb 26f
10:48 5 6 mph - 26f
10:42 3 6 mph - 25f
10:36 6
mph
- 26f
10:30 5 6 mph - 26f
10:24 3 6 mph - 26f
10:18  -  mph 1027.8mb 25f
10:12  -  mph 1027.8mb 25f
10:06  -  mph 1027.8mb 25f
10:00 3 5 mph - 25f
9:54 3 5 mph - 24f
9:48 3
mph
- -
9:42 2 3 mph - -
9:36 2 3 mph - -
9:30  -  mph - 24f
9:24  -  mph - 23f
9:18 3 5 mph - -
9:12 2 6 mph - -
9:06 3 6 mph - -
9:00  -  mph 1028.1mb 21f
8:54  -  mph 1028.1mb 21f
8:48 3 7 mph - 21f
8:42 5 7 mph - 21f
8:36 5 8 mph - 21f
8:18 6 8 mph 1027.9mb 20f
8:12 6 8 mph 1027.8mb 20f
8:06 5 7 mph 1027.8mb 20f
8:00 5 9 mph - -
7:54 6 8 mph - -
7:48  -  mph 1027.7mb -
7:42  -  mph 1027.7mb -
7:36  -  mph 1027.5mb -
7:30  -  mph 1027.4mb 18f
7:24  -  mph 1027.3mb 18f
7:18  -  mph 1027.2mb 17f
7:12  -  mph 1027.3mb 17f
7:06  -  mph 1027.2mb 17f
7:00 3 5 mph 1027.1mb 16f
6:54 3 7 mph 1027mb 15f
6:48 6 7 mph - -
6:42 6
mph
- -
6:36 5 7 mph - -
6:30 5 6 mph 1027.1mb -
6:24 5 7 mph 1027mb -
6:18  -  mph 1026.9mb 13f
6:12  -  mph 1026.9mb 14f
6:06  -  mph 1026.9mb 13f
6:00  -  mph 1026.8mb 11f
5:54  -  mph 1026.6mb 11f
5:48 1 2 mph - -
5:42 1 2 mph - -
5:36  -  2 mph - -
5:30  -  mph 1026.4mb -
5:24  -  mph 1026.4mb -
5:18 5 7 mph - 14f
5:12 5 6 mph - 14f
5:06 3 5 mph - 14f
5:00 3 5 mph 1026mb -
4:54 3 6 mph 1025.8mb -
4:48  -  mph 1025.7mb -
4:42  -  mph 1025.7mb -
4:36  -  mph 1025.5mb -
4:30 3 6 mph 1025.3mb 17f
4:24 3 6 mph 1025.3mb 17f
4:18  -  mph - 17f
4:12  -  mph - 18f
4:06  -  mph - 18f
4:00  -  mph 1024.7mb 17f
3:54  -  mph 1024.6mb 17f
3:48  -  mph 1024.5mb 17f
3:42 6 8 mph 1024.4mb 18f
3:36 6 7 mph 1024.3mb 19f
3:30 5
mph
1024.2mb 19f
3:24 5 6 mph 1024mb 19f
3:18  -  mph - 18f
3:12  -  mph - 18f
3:06  -  mph - 18f
3:00 5 6 mph 1023.8mb 18f
2:54 5 8 mph 1023.8mb 19f
2:48 7 9 mph 1023.9mb 19f
2:42 7 9 mph 1024mb 19f
2:36 6 8 mph 1023.9mb 19f
2:30 6 7 mph 1023.9mb 20f
2:24 6
mph
1023.7mb 20f
2:18  -  mph - 20f
2:12  -  mph - 20f
2:06  -  mph - 21f
2:00 6 9 mph - -
1:54 5 9 mph - -
1:30 7 11 mph 1023.3mb 21f
1:24 8 14 mph 1023.3mb 21f
1:06 7 10 mph 1023.1mb 21f
1:00 6 8 mph - 22f
12:54  -  mph - 22f
12:48  -  mph - 22f
12:42  -  mph - 22f
12:36  -  mph - 22f
12:30  -  mph 1022.3mb -
12:24  -  mph 1022mb -
12:18  -  mph 1021.9mb 22f
12:12  -  mph 1022mb 22f
12:06  -  mph 1022.1mb 22f
12:00  -  mph 1021.9mb -
Seg 03/02 11:54  -  mph 1021.9mb -
11:48  -  mph - 23f
11:42  -  mph - 23f
11:24  -  mph - 24f
11:18  -  mph 1021.1mb 24f
11:12  -  mph 1021mb 24f
11:06  -  mph 1020.9mb 24f
11:00  -  mph 1020.8mb 24f
10:54 16 22 mph 1020.7mb 24f
10:48 17 23 mph 1020.5mb 24f
10:30 11 21 mph 1020.4mb 25f
10:24 17 22 mph 1020.3mb 25f
10:00  -  mph 1019.8mb 25f
9:54  -  mph 1019.8mb 25f
9:48 10 17 mph - -
9:42 11 20 mph - -
9:36 14 21 mph - -
9:00 13 22 mph 1019.1mb 27f
8:54 22 29 mph 1018.8mb 27f
8:48  -  mph - 27f
8:42  -  mph - 27f
8:36  -  mph - 27f
8:30  -  mph - 27f
8:24  -  mph - 28f
8:18  -  mph 1018.3mb 27f
8:12  -  mph 1018.2mb 27f
8:06  -  mph 1018.2mb 27f
8:00 11 18 mph 1018.1mb -
7:54 6 11 mph 1018mb -
7:48 7 14 mph - -
7:42 8 15 mph - -
7:36 9 16 mph - -
7:30  -  mph 1017.6mb -
7:24  -  mph 1017.5mb -
7:18  -  mph 1017.6mb 28f
7:12  -  mph 1017.5mb 28f
7:06  -  mph 1017.5mb 28f
7:00 16 24 mph - -
6:54 16 23 mph - -
6:48 17 22 mph - -
6:42 18 24 mph - -
6:36 14 22 mph - -
6:30 14 24 mph - 28f
6:24 21 26 mph - 28f
6:18 17 28 mph 1016.7mb 28f
6:12 20 23 mph 1016.5mb 29f
6:06 20 25 mph 1016.1mb 29f
6:00 20 26 mph 1015.8mb 30f
5:54 18 29 mph 1015.4mb 30f
5:48 9 24 mph 1015.3mb 30f
5:42 21 25 mph 1014.8mb 30f
5:36 13 17 mph 1014.8mb 30f
5:30 16 29 mph 1014.7mb 30f
5:24 24 32 mph 1014.3mb 31f
5:18 15 24 mph 1014.4mb 31f
5:12 15 24 mph 1014.2mb 31f
5:06 14 20 mph 1014.1mb 31f
5:00 8 15 mph 1014mb 31f
4:54 9 17 mph 1014mb 31f
4:48 9 14 mph 1013.8mb 31f
4:42 13 21 mph 1013.6mb 31f
4:36 17 24 mph 1013.4mb 31f
4:30 14 21 mph 1013.4mb 31f
4:24 16 24 mph 1013.2mb 32f
4:18 17 23 mph 1013.1mb 32f
4:12 11 24 mph 1013.1mb 32f
4:06 9 22 mph 1013mb 33f
4:00 11 17 mph 1013mb 32f
3:54 9 20 mph 1013mb 32f
3:48 16 23 mph 1013mb 32f
3:42 14 23 mph 1013mb 32f
3:36 16 26 mph 1013mb 32f
3:30 16 28 mph 1012.8mb 32f
3:24 15 23 mph 1012.8mb 32f
3:18 21 38 mph 1012.7mb 32f
3:12 25 33 mph 1012.4mb 33f
3:06 21 31 mph 1012.4mb 33f
3:00 24 37 mph 1012.4mb 33f
2:54 21 34 mph 1012.1mb 33f
2:48 11 21 mph 1012.3mb 33f
2:42 18 32 mph 1012.2mb 32f
2:36 17 31 mph 1012.3mb 32f
2:30 28 33 mph 1012mb 32f
2:24 21 33 mph 1012mb 32f
2:18 22 31 mph 1012mb 32f
2:12 20 29 mph 1011.9mb 31f
2:06 23 37 mph 1011.9mb 31f
2:00 28 37 mph 1011.7mb 32f
1:54 20 29 mph 1011.7mb 32f
1:48 15 30 mph 1011.8mb 33f
1:42 23 34 mph 1011.4mb 33f
1:36 20 32 mph 1011.5mb 34f
1:30 22 32 mph 1011.4mb 34f
1:24 14 32 mph 1011.6mb 33f
1:18 20 33 mph 1011.4mb 33f
1:12 15 24 mph 1011.3mb 33f
1:06 18 26 mph 1011.3mb 33f
1:00 15 24 mph 1011.3mb 33f
12:54 16 24 mph 1011.2mb 34f
12:48 21 29 mph 1011.3mb 33f
12:42 16 29 mph 1011.4mb 34f
12:36 15 23 mph 1011.4mb 33f
12:30 14 25 mph 1011.5mb 34f
12:24 20 29 mph 1011.4mb 33f
12:18 14 25 mph 1011.5mb 34f
12:12 15 23 mph 1011.4mb 33f
12:06 14 18 mph 1011.5mb 33f
12:00 17 25 mph 1011.4mb 32f
11:54 15 22 mph 1011.4mb 32f
11:48 14 24 mph 1011.5mb 32f
11:42 13 23 mph 1011.5mb 33f
11:36 15 23 mph 1011.5mb 33f
11:30 14 22 mph 1011.5mb 32f